Location: Cuzcurrita-R�o Tir�n
(42.5415°N, 2.9642°W)
Time: 21:14:30
(UTC+00:00)

CZ-2C R/B - Pass Details

Date: 17 January 2021
Orbit: 785 x 870 km, 98.2° (Epoch: 03 March)

Event Time Altitude Azimuth Distance (km) Brightness Sun altitude
Exits shadow 18:43:15 29° 82° (E) 1,529 3.4 -17.5°
Maximum altitude 18:43:54 30° 95° (E) 1,506 3.5 -17.6°
Drops below altitude 10° 18:48:42 10° 155° (SSE) 2,501 5.0 -18.5°
Sets 18:51:23 0° 166° (SSE) 3,438 5.8 -19.0°
